Location: Transit Dreams Observatory
(35.0756°N, 82.1525°W)
Time: 01:39:19
(UTC-05:00)

Hubble Space Telescope - Visible Passes

Search period start: 16 November 2025 00:00
Search period end: 26 November 2025 00:00
Orbit: 482 x 484 km, 28.5° (Epoch: 15 November)

Date Brightness Start Highest point End Pass type
(mag) Time Alt. Az. Time Alt. Az. Time Alt. Az.
16 Nov 3.2 06:26:13 10° SSW 06:28:36 16° SSE 06:31:00 10° ESE visible
17 Nov 3.1 05:57:27 10° SSW 05:59:52 16° SSE 06:02:18 10° ESE visible
18 Nov 3.0 05:28:59 11° SSW 05:31:08 16° SSE 05:33:35 10° ESE visible
19 Nov 2.9 05:02:12 17° SSE 05:02:22 17° SSE 05:04:52 10° ESE visible
19 Nov 2.2 06:38:30 10° WSW 06:41:48 28° S 06:45:07 10° ESE visible
20 Nov 3.5 04:35:19 13° SE 04:35:19 13° SE 04:36:07 10° ESE visible
20 Nov 2.1 06:09:43 10° WSW 06:13:02 29° S 06:16:21 10° ESE visible
21 Nov 2.1 05:42:31 20° SW 05:44:14 29° S 05:47:33 10° ESE visible
22 Nov 2.0 05:15:28 29° S 05:15:28 29° S 05:18:45 10° ESE visible
23 Nov 3.0 04:48:21 20° SE 04:48:21 20° SE 04:49:55 10° ESE visible
23 Nov 2.3 06:22:57 10° WSW 06:26:07 25° S 06:29:16 10° SE visible
24 Nov 2.2 05:55:23 17° SW 05:57:15 25° S 06:00:24 10° SE visible
25 Nov 2.1 05:28:12 24° SSW 05:28:24 24° S 05:31:31 10° SE visible
